"Pseudo-MPEC" for C1RNCC2

Created 2020 Jan 15 19:07:05 UT using Find_Orb

Click here for an explanation of pseudo-MPECs

 
 Astrometry: 
     C1RNCC2  C2020 01 14.09476 03 55 21.92 +52 06 01.0    ~1E37 18.6 GVNEOCPG96
     C1RNCC2  C2020 01 14.09997 03 55 11.70 +52 08 36.9    ~1E37       VNEOCPG96
     C1RNCC2  C2020 01 14.10517 03 55 01.48 +52 11 12.4    ~1E37       VNEOCPG96
     C1RNCC2  C2020 01 14.11038 03 54 51.32 +52 13 46.4    ~1E37 18.8 GVNEOCPG96
     C1RNCC2  C2020 01 14.14901 03 53 35.34 +52 32 39.6    ~1E3q 18.4 GVNEOCPI52
     C1RNCC2  C2020 01 14.14920 03 53 35.02 +52 32 45.3    ~1E3q 18.1 GVNEOCPI52
     C1RNCC2  C2020 01 14.14939 03 53 34.57 +52 32 50.2    ~1E3q       VNEOCPI52
     C1RNCC2  C2020 01 14.14958 03 53 34.20 +52 32 55.8    ~1E3q       VNEOCPI52
     C1RNCC2  C2020 01 14.15161703 53 28.73 +52 33 48.5    ~1E4M 18.5 GVNEOCPH01
     C1RNCC2  C2020 01 14.15773303 53 16.71 +52 36 44.3    ~1E4M 18.5 GVNEOCPH01
     C1RNCC2  C2020 01 14.16533303 53 01.77 +52 40 22.0    ~1E4M 18.4 GVNEOCPH01
     C1RNCC2  C2020 01 14.17240903 52 47.87 +52 43 43.6    ~1E4M 18.6 GVNEOCPH01
     C1RNCC2  C2020 01 14.22400 03 51 08.00 +53 07 56.5    ~1E5b 18.6 GVNEOCPI52
     C1RNCC2  C2020 01 14.22419 03 51 07.66 +53 08 01.8    ~1E5b 18.6 GVNEOCPI52
     C1RNCC2  C2020 01 14.22438 03 51 07.29 +53 08 07.4    ~1E5b 18.5 GVNEOCPI52
     C1RNCC2  C2020 01 14.22456 03 51 06.83 +53 08 12.1    ~1E5b       VNEOCPI52
     C1RNCC2  C2020 01 14#L5[9kheVw:\8[Mv3y-EVa(WAA.p)eiV$oEF4Ueo$*Astrometry246
     C1RNCC2  C2020 01 14(='a=7EnC@VnJA]Zu;)ta=O%\E%:O-;G4VdL3ctV]+JaLaAJvcAL246
     C1RNCC2  C2020 01 14h$qHrUgGDDeJW(xgf)lredacted;M0SI2Vs.soZM+dE,s3-=1sAB246
     C1RNCC2  C2020 01 14U@cA#UI3/rE?E.l:h.gtLgZFTg=e:_apYJk\:Jifob2#TF=Hti5T246
     C1RNCC2  C2020 01 14iiu-.clickjFo:%?_;yTeh@5P,8_38[2kJ@[mpB!:hJ.GimbCGN1246
     C1RNCC2 KC2020 01 14BcNU!;nWPZU]m%YH?!rMHt1_v9JfF1AYxln!mI8:NL=GM5Nv+ajx595
     C1RNCC2 KC2020 01 14opV[qgW3!/%odLr#AO^GVMORYQ9#P9rI.q7?^lNa9j3pheree3EI595
     C1RNCC2 KC2020 01 144UQc.0:!gDo`yHp/g/!;MT=)J]I`P%for7mg!.Bi,7)+0QV?eu38595
     C1RNCC2 KC2020 01 14.79456303 34 06.00 +57 04 21.4    ~1EJq 18.7 GVNEOCPC95
     C1RNCC2 KC2020 01 14.80643503 33 42.99 +57 08 43.6    ~1EJq 18.7 GVNEOCPC95
     C1RNCC2 KC2020 01 14kh/ull7p-BOD5pFw8i**r5:#EYA0.TvfuC2f9?.Bdx8du*-%4YoN958
     C1RNCC2 KC2020 01 14\:bW%pe'pbmE_Z2explanationxytt=rf[nphM+GBY]7A:lwbBEb958
     C1RNCC2 KC2020 01 14'%tY$HSBu?#iiFptG9.+*)yFu%C8GBNGNaLv:HK3%:#%ewMX_2bi958
     C1RNCC2 KC2020 01 141bdk_V8(VAO^(U5wW`0]!gb@?ix$!`G3Hf$-Bp5yk?]NtrKRY5i4958
     C1RNCC2  C2020 01 15.19625 03 21 50.57 +59 20 50.2    ~1F57 19.1 GVNEOCPG96
     C1RNCC2  C2020 01 15.19666 03 21 49.86 +59 20 57.4    ~1F57 19.2 GVNEOCPG96
     C1RNCC2  C2020 01 15.19706 03 21 49.01 +59 21 04.9    ~1F57 19.0 GVNEOCPG96
     C1RNCC2  C2020 01 15.19747 03 21 48.28 +59 21 12.1    ~1F57 19.2 GVNEOCPG96

Station data:
(246) Klet Observatory-KLENOT  (N48.863293 E14.288100)  Czech Republic.
   1.06-m KLENOT telescope.
(595) Farra d'Isonzo  (N45.915734 E13.525780)  Italy.  Observers L.
   Bittesini, F. Fabris, E. Pettarin, F. Piani. Measurer E. Pettarin. 0.30-m
   f/4.5 reflector + CCD.
(958) Observatoire de Dax  (N43.693327 W1.030390)  France.
(C95) SATINO Remote Observatory, Haute Provence  (N43.932042 E5.712390)
   France. 0.60-m f/3.2 Newtonian reflector + CCD.
(G96) Mt. Lemmon Survey  (N32.442754 W110.788720)  US/Arizona.  Observers T.
   A. Pruyne, B. M. Africano, E. J. Christensen, G. A. Farneth, D. C. Fuls,
   A. R. Gibbs, A. D. Grauer, H. Gröller, J. A. Johnson, R. A. Kowalski, S.
   M. Larson, G. J. Leonard, D. Rankin, R. L. Seaman, F. C. Shelly. 1.5-m
   reflector + 10K CCD.
(H01) Magdalena Ridge Observatory, Socorro  (N33.984833 W107.189333)  US/New
   Mexico.  Observers W. H. Ryan, E. V. Ryan. Measurer W. H. Ryan. 2.4-m
   f/8.9 reflector + CCD.
(I52) Steward Observatory, Mt. Lemmon Station  (N32.442547 W110.788920)
   US/Arizona.  Observers T. A. Pruyne, B. M. Africano, E. J. Christensen, G.
   A. Farneth, D. C. Fuls, A. R. Gibbs, A. D. Grauer, H. Gröller, J. A.
   Johnson, R. A. Kowalski, S. M. Larson, G. J. Leonard, D. Rankin, R. L.
   Seaman, F. C. Shelly. 1.0-m reflector + CCD.

Orbital elements:  C1RNCC2
   Perihelion 2019 Aug 26.441683 +/- 0.101 TT = 10:36:01 (JD 2458721.941683)
Epoch 2020 Jan 15.0 TT = JDT 2458863.5   Earth MOID: 0.0197   AutoNEOCP
M 151.43969714 +/- 0.19             (J2000 ecliptic)
n   1.06980430 +/- 0.00066          Peri.  208.06079 +/- 0.18
a   0.94681796 +/- 0.000389         Node   110.01482 +/- 0.0020
e   0.0687480 +/- 0.000319          Incl.   27.63456 +/- 0.06
P   0.92/336.50d           H 24.3   G  0.15   U  7.8  
q 0.88172611 +/- 0.000664    Q 1.01190981 +/- 0.000121
From 34 observations 2020 Jan. 14-15 (26.5 hr); mean residual 0".56
Residuals in arcseconds: 
200114 G96  .19+  .08-    200114 I52  .01-  .14-    200114 C95  .27+  .21+    
200114 G96  .01-  .13-    200114 I52  .28+  .07-    200114 C95  .25+  .01-    
200114 G96  .31-  .23+    200114 I52  .29+  .30+    200114 958  .63+  3.4-    
200114 G96  .21+  .68-    200114 I52  .68-  .04+    200114 958  .14-  .52+    
200114 I52  .09-  .11+    200114 246  .20-  .17+    200114 958  .17+  .62+    
200114 I52  .41+  .31+    200114 246  .84-  .75+    200114 958  .49-  1.5-    
200114 I52  .29-  .29-    200114 246  .22+  .34+    200115 G96  .42-  .38+    
200114 I52  .25-  .19-    200114 246  .01-  .86+    200115 G96  .20+  .09+    
200114 H01  .05-  .14+    200114 246  .39+  .34+    200115 G96  .40-  .29+    
200114 H01  .00   .00     200114 595  .36+  .10-    200115 G96  .07+  .01+    
200114 H01  .01-  .05+    200114 595  .17-  .74+    
200114 H01  .02+  .00     200114 595  .05-  .25+    

Ephemerides (geocentric):
Date (UTC) HH   RA              Dec         delta   r     elong  mag " sig PA
---- -- -- --  -------------   -----------  ------ ------ -----  --- ---- ---
2020 01 15 19  03 04 26.248   +62 03 31.96  .04516 1.0053 117.6 19.8 .770 142
2020 01 15 20  03 03 13.582   +62 13 35.11  .04546 1.0053 117.4 19.8 .811 142
2020 01 15 21  03 02 01.077   +62 23 28.10  .04575 1.0054 117.3 19.8 .853 141
2020 01 15 22  03 00 48.737   +62 33 11.12  .04605 1.0054 117.1 19.8 .896 141
2020 01 15 23  02 59 36.564   +62 42 44.35  .04635 1.0054 116.9 19.8 .939 141
2020 01 16 00  02 58 24.564   +62 52 07.96  .04664 1.0054 116.7 19.9 .982 140
2020 01 16 01  02 57 12.739   +63 01 22.12  .04694 1.0055 116.5 19.9 1.03 140
2020 01 16 02  02 56 01.092   +63 10 27.01  .04724 1.0055 116.4 19.9 1.07 139
2020 01 16 03  02 54 49.628   +63 19 22.80  .04754 1.0055 116.2 19.9 1.11 139
2020 01 16 04  02 53 38.348   +63 28 09.65  .04784 1.0055 116.0 19.9 1.16 139
2020 01 16 05  02 52 27.258   +63 36 47.71  .04814 1.0055 115.9 20.0 1.20 138
2020 01 16 06  02 51 16.359   +63 45 17.16  .04844 1.0056 115.7 20.0 1.25 138
2020 01 16 07  02 50 05.654   +63 53 38.14  .04874 1.0056 115.5 20.0 1.30 138
2020 01 16 08  02 48 55.148   +64 01 50.80  .04904 1.0056 115.4 20.0 1.34 137
2020 01 16 09  02 47 44.843   +64 09 55.31  .04934 1.0056 115.2 20.0 1.39 137
2020 01 16 10  02 46 34.741   +64 17 51.79  .04965 1.0056 115.0 20.0 1.43 137
2020 01 16 11  02 45 24.847   +64 25 40.40  .04995 1.0057 114.9 20.1 1.48 136
2020 01 16 12  02 44 15.161   +64 33 21.28  .05025 1.0057 114.7 20.1 1.53 136
2020 01 16 13  02 43 05.689   +64 40 54.56  .05056 1.0057 114.6 20.1 1.57 136
2020 01 16 14  02 41 56.431   +64 48 20.38  .05086 1.0057 114.4 20.1 1.62 136
2020 01 16 15  02 40 47.391   +64 55 38.88  .05117 1.0057 114.3 20.1 1.67 135
2020 01 16 16  02 39 38.572   +65 02 50.19  .05147 1.0058 114.1 20.1 1.71 135
2020 01 16 17  02 38 29.975   +65 09 54.42  .05178 1.0058 114.0 20.2 1.76 135
2020 01 16 18  02 37 21.603   +65 16 51.72  .05209 1.0058 113.8 20.2 1.81 134
2020 01 16 19  02 36 13.460   +65 23 42.20  .05239 1.0058 113.7 20.2 1.86 134
2020 01 16 20  02 35 05.546   +65 30 25.99  .05270 1.0058 113.5 20.2 1.90 134
2020 01 16 21  02 33 57.865   +65 37 03.20  .05301 1.0059 113.4 20.2 1.95 134
2020 01 16 22  02 32 50.418   +65 43 33.95  .05331 1.0059 113.2 20.2 2.00 133
2020 01 16 23  02 31 43.208   +65 49 58.35  .05362 1.0059 113.1 20.3 2.04 133
2020 01 17 00  02 30 36.237   +65 56 16.52  .05393 1.0059 112.9 20.3 2.09 133
2020 01 17 01  02 29 29.506   +66 02 28.57  .05424 1.0059 112.8 20.3 2.14 133
2020 01 17 02  02 28 23.019   +66 08 34.60  .05455 1.0060 112.7 20.3 2.19 132
2020 01 17 03  02 27 16.776   +66 14 34.72  .05486 1.0060 112.5 20.3 2.23 132
2020 01 17 04  02 26 10.780   +66 20 29.04  .05517 1.0060 112.4 20.3 2.28 132
2020 01 17 05  02 25 05.032   +66 26 17.65  .05548 1.0060 112.3 20.4 2.33 131
2020 01 17 06  02 23 59.535   +66 32 00.66  .05579 1.0060 112.1 20.4 2.37 131
2020 01 17 07  02 22 54.289   +66 37 38.17  .05610 1.0061 112.0 20.4 2.42 131
2020 01 17 08  02 21 49.296   +66 43 10.26  .05642 1.0061 111.9 20.4 2.47 131
2020 01 17 09  02 20 44.559   +66 48 37.05  .05673 1.0061 111.8 20.4 2.51 130
2020 01 17 10  02 19 40.078   +66 53 58.61  .05704 1.0061 111.6 20.4 2.56 130
2020 01 17 11  02 18 35.855   +66 59 15.05  .05735 1.0061 111.5 20.5 2.61 130
2020 01 17 12  02 17 31.891   +67 04 26.44  .05767 1.0062 111.4 20.5 2.65 130
2020 01 17 13  02 16 28.188   +67 09 32.88  .05798 1.0062 111.3 20.5 2.70 129
2020 01 17 14  02 15 24.746   +67 14 34.46  .05829 1.0062 111.1 20.5 2.74 129
2020 01 17 15  02 14 21.568   +67 19 31.25  .05861 1.0062 111.0 20.5 2.79 129
2020 01 17 16  02 13 18.654   +67 24 23.35  .05892 1.0062 110.9 20.5 2.84 129
2020 01 17 17  02 12 16.006   +67 29 10.83  .05923 1.0063 110.8 20.5 2.88 129
2020 01 17 18  02 11 13.624   +67 33 53.77  .05955 1.0063 110.7 20.6 2.93 128